This is the latest recevied weather packets stored in our database for station/object IW1CGW-13. If no packets are shown the sender has not sent any weather packets the latest 10 day(s).
| Time | Temp. | Humidity | Pressure | Rain* | Wind** | Luminosity | Snow |
|---|---|---|---|---|---|---|---|
| 1777805378 | 17.78° C | 59% | 1018.7 hPa | - | - | - | - |
| 1777804755 | 18.89° C | 58% | 1018.8 hPa | - | - | - | - |
| 1777804134 | 21.67° C | 58% | 1018.9 hPa | - | - | - | - |
| 1777803513 | 21.11° C | 59% | 1018.9 hPa | - | - | - | - |
| 1777802892 | 20.56° C | 59% | 1018.9 hPa | - | - | - | - |
| 1777802272 | 21.67° C | 59% | 1019 hPa | - | - | - | - |
| 1777801651 | 20° C | 60% | 1019.1 hPa | - | - | - | - |
| 1777801030 | 21.11° C | 60% | 1018.9 hPa | - | - | - | - |
| 1777800405 | 18.89° C | 61% | 1019.1 hPa | - | - | - | - |
| 1777799782 | 18.33° C | 61% | 1019.3 hPa | - | - | - | - |
| 1777799161 | 19.44° C | 60% | 1019.4 hPa | - | - | - | - |
| 1777798540 | 18.89° C | 60% | 1019.5 hPa | - | - | - | - |
| 1777797269 | 17.22° C | 62% | 1019.4 hPa | - | - | - | - |
| 1777796645 | 16.67° C | 62% | 1019.4 hPa | - | - | - | - |
| 1777796024 | 16.67° C | 63% | 1019.4 hPa | - | - | - | - |
| 1777795402 | 15.56° C | 64% | 1019.4 hPa | - | - | - | - |
| 1777794779 | 15.56° C | 64% | 1019.3 hPa | - | - | - | - |
| 1777794158 | 15.56° C | 64% | 1019.3 hPa | - | - | - | - |
| 1777793533 | 15.56° C | 64% | 1019.4 hPa | - | - | - | - |
| 1777792910 | 15° C | 64% | 1019.3 hPa | - | - | - | - |
| 1777792281 | 14.44° C | 64% | 1019.2 hPa | - | - | - | - |
| 1777791661 | 13.89° C | 64% | 1019.3 hPa | - | - | - | - |
| 1777791040 | 13.89° C | 64% | 1019.2 hPa | - | - | - | - |
| 1777790417 | 13.89° C | 64% | 1019.2 hPa | - | - | - | - |
| 1777789796 | 13.89° C | 64% | 1019.3 hPa | - | - | - | - |
* Rain since midnight (hover to see other rain measurements)
** Current wind speed in m/s (hover to see current wind gust speed)